Showing default

ZHANGHENG 1, 43194

Orbit data source: Space-Track

ZHANGHENG 1, 43194 is a payload satellite owned by CAS (CN) in SSO that was launched on Fri, 02 Feb 2018 UTC via a CHANG ZHENG 2D launch vehicle from the Jiuquan Satellite Launch Center, China (JSC). Payload-class satellites include a variety of spacecraft equipped with specific instruments for various scientific and technological missions. These include communications satellites like Starlink; space stations such as the ISS; scientific satellites like the Hubble; Earth observation satellites from companies like Planet Labs, Umbra, and HawkEye 360; GPS; miniature CubeSats for education and research; and military/defense satellites.

Loading next visibility...
Identifier
43194, 2018-015C
Orbit
SSO
Country
Flag of CNCN / PRC
Related business
Manufacturer
DFH
Mission
Operational Civil Science
Bus & Motor
CAST-2000, AOCS
Mass
730 kg wet, ~700 kg dry
Launch date (UTC)
2018-02-02 (8 years ago)
Launch vehicle
CHANG ZHENG 2D
Launch site
Jiuquan Satellite Launch Center, China (JSC)
Object type
Payload
Rocket body
Debris
Shape & HBR
Box + 2 Pan, 2.0 m
Radar Cross Section
2.715 m², Large (>1 m²)

Expand to show TLE details & history
Last TLE update: 11 hours ago

TLE from 11 hours ago
0 ZHANGHENG 1
1 43194U 18015C   25259.69135116  .00010552  00000-0  47426-3 0  9990
2 43194  97.6606  55.3816 0016211 172.8655 187.2813 15.21210268423074
Epoch: 2025-09-16T16:35Z
TLE epoch observation values (Epoch: 2025-09-16T16:35:32.74Z)
Latitude
-0.00009°
Longitude
170.61718°
Altitude
516.34 km
Speed
7.599 km/s
True Right ascension
03h 41m 31s
True Declination
0° 00' 00"
Sunlit
Object was in full shadow at epoch
Visualization orbit readout
Latitude
Unknown
Longitude
Unknown
Altitude
Unknown
Speed
Unknown
Apparent Right ascension
Unknown
Apparent Declination
Unknown
Sunlit
N/A
Visualization observer readout
Local Sidereal Time
20:35:09
Azimuth
Unknown
Elevation
Unknown
Doppler factor
Unknown
Orbital elements
Apogee altitude
510.313 km
Perigee altitude
488.015 km
Semi-major axis
6,877.301 km
Eccentricity
0.00162
Inclination
97.6606°
RAAN
55.3816°
Arg. of periapsis
172.8655°
True anomaly
187.2578°
Mean anomaly
187.2813°
Eccentric anomaly
187.26955°
Mean motion
3.80554 °/min
Orbital period
94.6 mins
BSTAR
0.00047426
Loading maneuver chart data...
Computing Atmospheric mass density...
Loading historical data...
Loading historical data...
Loading historical data...
Loading historical data...
Loading historical data...
Loading historical data...
Loading historical data...

Documentation

Showing up to 5 results
|